NUTSAT

Last updated on Sat Apr 01 2023 00:02:07 GMT+0000 (Coordinated Universal Time)

1 55124U 98067UR 23090.07537165 .07633833 11981-4 20025-2 0 9993 2 55124 51.6157 343.8055 0010092 234.6006 125.4073 16.27590546 14423

Satellite not in orbit